Location: Bat�n de Arriba
(28.5379°N, 16.2837°W)
Time: 18:25:44
(UTC+00:00)

Daily predictions for brighter satellites

Satellite Brightness Start Highest point End
(mag) Time Altitude Azimuth Time Altitude Azimuth Time Altitude Azimuth
CZ-4C R/B 4.2 18:53:35 10° NW 19:01:10 52° WSW 19:09:17 10° S
ADEOS Rocket 4.3 18:57:11 10° NE 19:03:13 28° E 19:09:31 10° SSE
CZ-4 R/B 2.3 19:00:44 10° SE 19:04:09 27° ENE 19:07:38 10° NNE
Iridium 96 3.9 19:05:36 10° N 19:08:09 79° W 19:10:54 10° S
EP 3 3.9 19:07:17 10° SSW 19:09:53 86° WNW 19:12:03 10° NNE
Cosmos 864 Rocket 4.5 19:03:59 10° S 19:10:06 86° E 19:16:15 10° N
Orbus 7S 3.8 19:06:09 10° W 19:12:01 59° SSW 19:14:44 10° ESE
FengYun 1-2 T 4.3 19:07:43 10° SSE 19:13:13 60° ENE 19:18:47 10° N
COSMO-SKYMED 1 2.8 19:09:51 10° N 19:14:11 76° WNW 19:18:30 10° SSW
Cosmos 44 Rocket 3.4 19:10:46 10° SSW 19:15:37 77° WNW 19:20:24 10° NNE
GPS 2-05 Rocket1 2.7 19:16:00 10° W 19:18:26 45° NNW 19:20:28 13° NE
ATLAS CENTAUR R/B 2.5 19:16:20 10° N 19:19:03 18° NE 19:21:34 10° E
Cosmos 2218 Rocket 4.4 19:13:22 10° SSW 19:19:38 70° W 19:26:01 10° N
Cosmos 1339 Rocket 4.4 19:14:39 10° N 19:20:47 79° E 19:26:59 10° S
Meteor 2-12 Rocket 4.4 19:16:44 10° S 19:22:39 62° E 19:28:36 10° NNE
FUSE 4.4 19:19:21 10° W 19:24:35 57° S 19:29:51 10° ESE
DMSP B5D1-3 4.5 19:29:38 10° NNE 19:34:42 64° ESE 19:39:45 10° S
Envisat 4.2 19:30:58 10° S 19:35:49 47° W 19:40:42 10° NNW
USA 116 3.3 19:32:50 10° N 19:35:56 75° WNW 19:39:09 10° SSW
Cosmos 2251 Rocket 3.5 19:30:43 10° N 19:36:01 70° ENE 19:41:21 10° SSE
OAO 2 Rocket 3.4 19:31:19 10° WSW 19:36:12 67° NNW 19:39:42 19° ENE
CSL-04 Rocket 3.8 19:32:20 10° SSE 19:37:38 52° ENE 19:43:00 10° N
Cosmos 1356 Rocket 3.3 19:38:25 10° N 19:42:31 73° E 19:46:40 10° SSE
Cosmos 1455 3.9 19:39:19 10° NNW 19:42:47 36° W 19:46:13 10° SSW
Cosmos 1076 Rocket 3.8 19:39:04 10° SSE 19:43:06 41° E 19:47:09 10° NNE
NOSS 7 (D) 4.0 19:39:50 10° SSW 19:43:10 69° ESE 19:44:43 26° NE
Cosmos 2221 2.9 19:41:52 10° NNE 19:45:54 39° E 19:49:57 10° SSE
ATLAS 3B R/B 3.7 19:42:28 10° SSE 19:47:34 23° ESE 19:49:13 21° E
SWIFT 4.2 19:46:19 10° WSW 19:49:38 23° S 19:52:45 11° SE
Okean-O 4.5 19:46:57 10° SSW 19:50:57 34° W 19:54:59 10° NNW
CZ-2D R/B 3.1 19:48:15 10° SSE 19:52:00 62° ENE 19:55:48 10° N
NOSS 3-2 (C) 3.4 19:48:11 10° S 19:53:29 50° ESE 19:56:59 22° NE
Stardust Del rocket 4.0 19:51:38 10° WSW 19:53:58 22° S 19:54:36 19° SSE
Cosmos 1371 Rocket 3.9 19:51:46 10° SSW 19:56:55 84° ESE 20:02:08 10° NNE
Cosmos 1939 Rocket 2.6 19:53:07 10° SSE 19:57:00 74° ENE 20:00:57 10° N
OAO 3 Rocket 3.6 19:52:48 10° W 19:57:19 50° NNW 19:59:21 29° NE
In-Cosmos 22 Rocket 4.3 19:57:06 10° S 20:02:40 54° E 20:08:07 10° NNE
CENTAUR R/B 2.6 19:58:53 10° S 20:04:04 44° ESE 20:06:17 32° ENE
YAOGAN 1 3.1 20:03:04 10° S 20:07:19 59° W 20:11:35 10° NNW
Centaur D-1AR AC-36 4.2 20:05:38 10° WSW 20:07:28 12° SSW 20:08:58 10° S
NOSS 3-2 (A) 3.6 20:05:16 10° SW 20:10:44 65° WNW 20:15:45 15° NNE
DELTA 2 R/B (1) 3.9 20:06:52 10° NW 20:12:16 48° NNE 20:13:35 40° ENE
Cosmos 2058 2.8 20:09:03 10° S 20:13:09 89° E 20:15:37 24° N
SL-16 R/B 3.6 20:12:31 10° NW 20:17:44 39° WSW 20:22:55 10° S
Ariane Rocket 3.0 20:14:17 10° SSE 20:19:12 55° ENE 20:24:10 10° N
Genesis I 3.9 20:16:01 10° S 20:18:57 41° SSE 20:18:57 41° SSE
Mugunghwa Rocket 4.3 20:18:48 10° W 20:25:14 63° SSW 20:28:08 35° SE
USA 234 3.2 20:21:33 15° SE 20:27:06 89° NE 20:33:39 10° NW
Cosmos 2263 Rocket 3.3 20:22:01 10° SW 20:27:13 41° WNW 20:32:29 10° N
Cosmos 1603 3.6 20:25:29 10° N 20:31:00 61° ENE 20:31:00 61° ENE
Intelsat 5-2 Rocket 4.4 20:29:22 10° SW 20:32:40 35° SSE 20:32:42 35° SSE
Cosmos 1844 Rocket 4.2 20:33:07 10° S 20:35:11 22° SSE 20:35:11 22° SSE
CZ-4 R/B 4.5 20:36:41 10° SW 20:39:08 15° W 20:41:36 10° WNW
Atlas Centaur 2 1.7 20:34:53 10° WNW 20:39:18 83° NW 20:39:18 83° NW
CCE 1 Rocket 4.0 20:37:40 10° WSW 20:41:30 56° WSW 20:41:30 56° WSW
Cosmos 1892 4.2 20:41:55 10° SSW 20:44:15 32° SW 20:44:15 32° SW
H-2A ROCKET BODY 2.9 20:41:53 10° W 20:45:29 28° WSW 20:45:29 28° WSW
ADEOS Rocket 4.4 20:41:54 10° N 20:48:35 46° WNW 20:55:45 10° SW
Delta 2 Rocket 4.3 20:51:17 10° WSW 20:56:10 64° W 20:56:10 64° W
ATLAS CENTAUR R/B 3.6 20:55:04 10° WNW 20:57:48 20° WSW 20:57:56 20° WSW
FALCON 9 R/B 2.9 20:43:13 10° W 20:59:39 66° NNW 21:00:19 62° NNE
Cosmos 1943 4.4 20:54:49 10° NNW 20:57:38 31° NNW 20:57:38 31° NNW
SL-4 R/B 4.2 20:57:00 10° SSW 20:58:57 24° SSW 20:58:57 24° SSW
DASH 4.1 20:59:20 10° SW 21:43:54 - ENE 21:02:36 49° S
Cosmos 1605 Rocket 4.2 20:58:19 10° SSW 21:04:34 70° W 21:06:04 52° NNW
Centaur D-1AR AC-39 3.5 20:36:53 10° WSW 21:08:38 58° S 21:09:44 54° SSE
ATLAS 3B R/B 3.6 21:31:20 10° SW 21:36:33 43° W 21:36:33 43° W
CENTAUR R/B 4.5 21:50:26 10° W 21:53:32 21° WNW 21:53:32 21° WNW
